Location: Boiro
(42.6475°N, 8.8834°W)
Time: 10:14:44
(UTC+02:00)

First-Move - Pass Details

Date: 25 April 2024
Orbit: 538 x 600 km, 97.7° (Epoch: 20 May)

Event Time Altitude Azimuth Distance (km) Brightness Sun altitude
Rises 06:04:22 0° 12° (NNE) 2,871 ? -16.1°
Reaches altitude 10° 06:06:33 10° 12° (NNE) 1,965 ? -15.8°
Maximum altitude 06:10:51 89° 284° (WNW) 613 ? -15.1°
Enters shadow 06:14:12 16° 194° (SSW) 1,586 ? -14.6°
